Regional Weather Roundup
Issued by NWS Sterling, VA

Home | Current Version | Previous Version | Text Only | Print | Product List | Glossary Off
Versions: 1 2 3 4 5 6 7 8 9 10 11 12 13 14 15 16 17 18 19 20 21 22 23 24 25 26 27 28 29 30 31 32 33 34 35 36 37 38 39 40 41 42 43 44 45 46 47 48 49 50

755
ASUS41 KLWX 140410
RWRLWX

REGIONAL WEATHER ROUNDUP
NATIONAL WEATHER SERVICE BALTIMORE MD/WASHINGTON DC
1100 PM EST SAT FEB 13 2016

Note: "FAIR" indicates few or no clouds below 12,000 feet
with no significant weather and/or obstructions to visibility.
 TC=TEMPERATURE CELSIUS

 * =Non NWS site. Station does not report precipitation (e.g. rain,
    snow, etc.), thunder, or fog.

DCZ001-MDZ009-015-VAZ040>042-051-053>054-140500-
WASHINGTON METRO

CITY           SKY/WX    TMP DP  RH WIND       PRES   REMARKS
WASHINGTON NAT FAIR      16  -6  37 NW12G23   30.47R WCI   3
DULLES         FAIR      13  -6  42 NW18G25   30.44S WCI  -4
ANDREWS AFB    CLEAR     14  -6  40 NW17      30.42R WCI  -2
FT BELVOIR     FAIR      15  -8  36 NW9       30.47R WCI   3
QUANTICO       FAIR      17  -6  35 NW12G25   30.49R WCI   4
LEESBURG*      FAIR      16   0  48 MISG      30.44R
MANASSAS*      FAIR      14  -2  48 NW10      30.46S WCI   1
GAITHERSBURG*  CLEAR     10  -6  48 NW16G22   30.44R WCI  -7

$$

MDZ006>007-011-014-140500-
BALTIMORE METRO

CITY           SKY/WX    TMP DP  RH WIND       PRES   REMARKS
BWI AIRPORT    PTCLDY    13  -4  46 W14G25    30.42R WCI  -2
MD SCIENCE CTR   N/A     15  -6  39 MISG      30.43R
MARTIN STATE   CLEAR     16  -2  45 W14G21    30.44R WCI   1
ANNAPOLIS      CLEAR     16  -1  47 W12G18    30.44R WCI   3
FORT MEADE*    CLEAR     14  -2  48 W12G21    30.45S WCI   0

$$

MDZ012-015-019>023-140500-
MARYLAND EASTERN SHORE

CITY           SKY/WX    TMP DP  RH WIND       PRES   REMARKS
OCEAN CITY     PTCLDY    16  -3  43 NW9G20    30.40R WCI   4
SALISBURY      CLEAR     16  -4  41 NW13      30.40S WCI   2
BAY BRIDGE AP*   N/A     18  -4  38 NW17G30   30.43S WCI   2
EASTON*        CLEAR     17  -2  43 N21G30    30.45S WCI  -1

$$

MDZ017>025-140500-
SOUTHERN MARYLAND

CITY           SKY/WX    TMP DP  RH WIND       PRES   REMARKS
PATUXENT RIVER PTCLDY    16  -7  35 W17       30.44R WCI   0
ST INIGOES     CLEAR     17  -5  37 NW14G23   30.45R WCI   3
LEONARDTOWN*   CLEAR     18  -9  29 NW12G17   30.46R WCI   5

$$

MDZ003>005-140500-
NORTH CENTRAL MARYLAND

CITY           SKY/WX    TMP DP  RH WIND       PRES   REMARKS
FREDERICK*     CLEAR     12   1  62 NW14G22   30.45S WCI  -3
HAGERSTOWN APT MOCLDY    11  -5  48 NW23G30   30.39S WCI  -9
WESTMINSTER*   PTCLDY    10   0  61 NW12G24   30.35S WCI  -4

$$

MDZ501>502-140500-
WESTERN MARYLAND

CITY           SKY/WX    TMP DP  RH WIND       PRES   REMARKS
OAKLAND*       PTCLDY     0  -6  78 W13G20    30.18F WCI -18
CUMBERLAND*    CLEAR     12  -6  44 W3        30.46

$$

VAZ025>031-140500-
SHENANDOAH VALLEY

CITY           SKY/WX    TMP DP  RH WIND       PRES   REMARKS
WINCHESTER*    FAIR      12  -4  48 NW9       30.41S WCI   0
FRONT ROYAL*   FAIR      14  -6  41 NW13G18   30.40S WCI   0
LURAY*         MOCLDY    12  -6  44 CALM      30.41S
NEW MARKET*    MOCLDY     8  -4  57 CALM      30.40S
STAUNTON*      FAIR      15  -4  42 N5        30.41R
WAYNESBORO*    FAIR      10 -10  39 NW5       30.36S

$$

WVZ021-048>050-054>055-140500-
EASTERN WEST VIRGINIA PANHANDLE

CITY           SKY/WX    TMP DP  RH WIND       PRES   REMARKS
MARTINSBURG    FAIR      12  -5  46 NW8G20    30.42S WCI   0
PETERSBURG*    MOCLDY    12  -4  50 CALM      30.43F

$$

VAZ036>039-050-140500-
CENTRAL FOOTHILLS

CITY           SKY/WX    TMP DP  RH WIND       PRES   REMARKS
CHARLOTTESVILL FAIR      15  -8  35 NW6       30.43R
CULPEPER*      FAIR      13  -4  47 CALM      30.47S
ORANGE*        FAIR      18  -4  38 W7        30.46S
GORDONSVILLE*  FAIR      14  -4  44 CALM      30.44S
WARRENTON*     FAIR      15  -1  48 NW7       30.45R

$$

VAZ055>057-140500-
NORTH AND CENTRAL PIEDMONT

CITY           SKY/WX    TMP DP  RH WIND       PRES   REMARKS
FREDERICKSBRG* FAIR      16  -3  43 NW8       30.47S WCI   5
STAFFORD*      FAIR      14  -5  41 NW12      30.51R WCI   0

$$

NCZ024-NYZ072-PAZ021-071-VAZ022-071-140500-
OTHER REGIONAL OBSERVATIONS

CITY           SKY/WX    TMP DP  RH WIND       PRES   REMARKS
NEW YORK CITY  CLEAR      6 -14  39 NW10G24   30.30F WCI  -9
PHILADELPHIA   PTCLDY    14  -8  37 W13G21    30.37S WCI   0
PITTSBURGH     MOCLDY     3  -3  76 W5        30.40S
ROANOKE        FAIR      14  -5  42 W6        30.42S
RICHMOND       FAIR      16  -4  41 N13       30.46R WCI   2
RALEIGH        CLEAR     23  -1  35 VRB5      30.44S

$$

ANZ530>537-140500-
MARINE OBSERVATIONS

STATION/POSITION TIME  TEMP    WIND        PRES
                       AIR SEA DIR/SP/G
                 (UTC) (F)     (DEG/KT/KT) (MB)
THOMAS PT LIGHT  0300   16 35  320/ 21/ 25 1030.9S
BALT KEY BRIDGE  0300   16                 1029.9R
COVE POINT       0300   17                 1031.0S
LEWISETTA        0300   19 35              1031.0R
SOLOMONS ISLAND  0300   18 38                N/A
PINEY POINT      0312          350/ 24/ 29   N/A

$$





USA.gov is the U.S. government's official web portal to all federal, state and local government web resources and services.